FW7205 Weather Reports


time (UTC)temp
F
wind
direction
speed
knots
gust
knots
rain 1hr
in
rain 24hr
in
rain mn
in
humidity
%
barometer
mb
20260510120053 70 0 0.0 0.0 0.00 0.00 0.00 92 1012.3
20260510114557 70 0 0.0 0.0 0.00 0.00 0.00 92 1012.0
20260510113052 71 0 0.0 0.9 0.00 0.00 0.00 92 1011.6
20260510111556 71 0 0.0 0.9 0.00 0.00 0.00 92 1011.2
20260510110055 71 0 0.0 0.9 0.00 0.00 0.00 92 1011.7
20260510104553 71 0 0.0 0.9 0.00 0.00 0.00 92 1011.1
20260510103101 71 0 0.0 2.6 0.00 0.00 0.00 91 1010.4
20260510101605 71 0 0.0 1.7 0.00 0.00 0.00 91 1010.1
20260510100104 71 0 0.0 1.7 0.00 0.00 0.00 91 1009.9
20260510094557 71 0 0.0 0.9 0.00 0.00 0.00 90 1009.9
20260510093053 71 0 0.0 0.9 0.00 0.00 0.00 90 1009.9
20260510091551 71 0 0.0 0.0 0.00 0.00 0.00 89 1009.8
20260510090056 71 0 0.0 1.7 0.00 0.00 0.00 89 1009.9
20260510084558 71 0 0.0 1.7 0.00 0.00 0.00 89 1009.8
20260510083055 71 0 0.0 1.7 0.00 0.00 0.00 89 1009.7
20260510081600 72 0 0.0 1.7 0.00 0.00 0.00 89 1009.8
20260510080053 72 0 0.0 0.9 0.00 0.00 0.00 89 1009.9
20260510074553 73 0 0.0 0.9 0.00 0.00 0.00 88 1010.0
20260510073104 73 0 0.0 0.9 0.00 0.00 0.00 88 1010.0
20260510071553 73 0 0.0 0.9 0.00 0.00 0.00 88 1010.3
20260510070056 73 0 0.0 0.9 0.00 0.00 0.00 87 1010.1
20260510064554 73 0 0.0 1.7 0.00 0.00 0.00 86 1010.0
20260510063053 74 0 0.0 2.6 0.00 0.00 0.00 86 1010.3
20260510061601 74 131 0.0 1.7 0.00 0.00 0.00 85 1010.2
20260510060054 74 0 0.0 1.7 0.00 0.00 0.00 83 1010.4
20260510054601 74 0 0.0 1.7 0.00 0.00 0.00 82 1010.4
20260510053055 75 0 0.0 1.7 0.00 0.00 0.00 80 1010.3
20260510051554 75 0 0.0 1.7 0.00 0.00 0.00 79 1010.6
20260510050056 76 0 0.0 1.7 0.00 0.00 0.00 76 1010.6
20260510044555 76 0 0.0 1.7 0.00 0.00 0.00 74 1010.6
20260510043055 76 0 0.0 2.6 0.00 0.00 0.00 73 1010.4
20260510041626 76 0 0.0 2.6 0.00 0.00 0.00 73 1010.7
20260510040056 77 0 0.0 1.7 0.00 0.00 0.00 78 1010.4
20260510034558 77 0 0.0 1.7 0.00 0.00 0.00 77 1010.2
20260510033111 78 0 0.0 0.0 0.00 0.00 0.00 75 1009.8
20260510031556 78 0 0.0 0.0 0.00 0.00 0.00 74 1009.7
20260510030054 78 0 0.0 0.0 0.00 0.00 0.00 73 1009.3
20260510024608 79 0 0.0 0.0 0.00 0.00 0.00 72 1009.2
20260510023058 79 0 0.0 0.0 0.00 0.00 0.00 71 1009.1
20260510021553 80 0 0.0 0.0 0.00 0.00 0.00 70 1009.0
20260510020055 80 0 0.0 0.0 0.00 0.00 0.00 69 1008.7
20260510014613 81 0 0.0 0.0 0.00 0.00 0.00 68 1008.5
20260510013102 82 0 0.0 0.0 0.00 0.00 0.00 68 1008.3
20260510011554 83 0 0.0 0.0 0.00 0.00 0.00 69 1008.1
20260510010055 84 0 0.0 0.0 0.00 0.00 0.00 69 1008.1
20260510004603 84 0 0.0 0.0 0.00 0.00 0.00 71 1007.5
20260510003054 84 0 0.0 0.0 0.00 0.00 0.00 70 1007.4
20260510001555 84 0 0.0 0.0 0.00 0.00 0.00 69 1007.4
20260510000054 84 0 0.0 0.0 0.00 0.00 0.00 69 1007.3
20260509234553 85 0 0.0 0.0 0.00 0.00 0.00 68 1007.2
20260509233057 85 0 0.0 0.9 0.00 0.00 0.00 68 1007.3
20260509231608 85 0 0.0 0.9 0.00 0.00 0.00 68 1007.3
20260509230053 86 0 0.0 1.7 0.00 0.00 0.00 66 1007.1
20260509224558 85 0 0.0 1.7 0.00 0.00 0.00 67 1007.0
20260509223056 85 0 0.0 0.9 0.00 0.00 0.00 68 1006.9
20260509221554 85 0 0.0 1.7 0.00 0.00 0.00 66 1006.8
20260509220058 86 0 0.0 0.0 0.00 0.00 0.00 67 1006.9
20260509214555 86 0 0.0 0.9 0.00 0.00 0.00 63 1007.0
20260509213056 87 0 0.0 2.6 0.00 0.00 0.00 61 1007.4
20260509211559 89 5 0.0 1.7 0.00 0.00 0.00 60 1007.3
20260509210107 89 350 0.0 0.9 0.00 0.00 0.00 62 1007.4
20260509204554 88 0 0.0 1.7 0.00 0.00 0.00 63 1007.4
20260509203057 87 0 0.0 1.7 0.00 0.00 0.00 62 1008.0
20260509201553 87 0 0.0 0.0 0.00 0.00 0.00 63 1008.2
20260509200057 88 0 0.0 0.9 0.00 0.00 0.00 63 1008.2
20260509194555 87 0 0.0 0.9 0.00 0.00 0.00 66 1008.1
20260509193057 87 0 0.0 0.0 0.00 0.00 0.00 67 1008.5
20260509191554 84 0 0.0 1.7 0.00 0.00 0.00 72 1008.9
20260509190056 85 0 0.0 0.9 0.00 0.00 0.00 70 1009.0
20260509184550 85 0 0.0 0.9 0.00 0.00 0.00 72 1009.0
20260509183055 84 346 0.0 1.7 0.00 0.00 0.00 72 1009.4
20260509181555 84 0 0.0 1.7 0.00 0.00 0.00 75 1009.4
20260509180054 84 0 0.0 1.7 0.00 0.00 0.00 75 1009.6
20260509174555 83 0 0.0 0.0 0.00 0.00 0.00 78 1009.7
20260509173116 81 0 0.0 0.0 0.00 0.00 0.00 83 1010.0
20260509171553 77 0 0.0 0.0 0.00 0.00 0.00 88 1010.3
20260509170112 77 0 0.0 0.0 0.00 0.00 0.00 89 1010.0
20260509164602 77 0 0.0 0.0 0.00 0.00 0.00 90 1010.2
20260509163053 76 0 0.0 0.0 0.00 0.00 0.00 90 1010.1
20260509161556 76 0 0.0 0.0 0.00 0.00 0.00 91 1010.1
20260509160059 76 0 0.0 0.0 0.00 0.00 0.00 91 1010.2
20260509154555 76 0 0.0 0.0 0.00 0.00 0.00 91 1010.2
20260509153054 76 0 0.0 0.9 0.00 0.00 0.00 91 1010.3
20260509151616 76 0 0.0 0.9 0.00 0.00 0.00 91 1010.2
20260509150055 75 0 0.0 4.3 0.00 0.00 0.00 92 1009.8
20260509144554 75 360 0.9 3.5 0.00 0.00 0.00 92 1009.1
20260509143106 76 360 0.0 3.5 0.00 0.00 0.00 93 1009.0
20260509141557 74 360 0.0 3.5 0.00 0.00 0.00 94 1009.0
20260509140057 74 208 0.0 1.7 0.00 0.00 0.00 94 1009.2
20260509134605 74 197 0.0 2.6 0.00 0.00 0.00 94 1009.3
20260509133104 73 0 0.0 0.9 0.00 0.00 0.00 94 1009.5
20260509131604 73 0 0.0 0.9 0.00 0.00 0.00 94 1009.5
20260509130128 73 0 0.0 0.9 0.00 0.00 0.00 94 1009.3
20260509124553 73 0 0.0 0.9 0.00 0.00 0.00 94 1009.3
20260509123120 73 0 0.0 0.0 0.00 0.00 0.00 93 1009.3
20260509121554 73 0 0.0 0.0 0.00 0.00 0.00 93 1009.6